Free Severe Weather Alerts by Email and Text Message   

 
Follow iAlert.com on twitter @ialertcom
Search For Active Alerts in Your Area  
  Hi Guest:  [ Sign-up / Services ] [ Login ]

Current weather by "City, St" or "zip code"  

 

Advertise Here

Hazardous Weather Conditions

No active alerts for LOS ANGELES, CALIFORNIA

Current Conditions: LOS ANGELES, CALIFORNIA

Fair


71.0 F

Last Updated on Jun 25 2017, 9:51 am PDT
Humidity: 73%
Wind Speed: W 5.8 mph
Barometer 29.91 in
Dewpoint: 62.1 F
Visibility: 10.00 mi
Precip: --
Heat Index: NA
Wind Chill: NA
Current conditions at:

Santa Monica, Santa Monica Municipal Airport, CA (KSMO)

Lat: 34.01 Lon: -118.45

Local Radar Image active severe weather and emergency alerts image image weather storm and storm spotter reports image weather observation monitoring service image
Local
Radar
Active
Alerts
Storm Reports Weather
Monitoring

Weather Alert Notification Services


ialert severe weather and emergency alerts by text message and email ialert daily weather forecast by email and text message service ialert real-time weather-observation monitoring and alert notification service ialert storm report monitoring alert notification

Observation History for LOS ANGELES, CALIFORNIA


Time Wind
(mph)
Vis
(mi)
Weather Precip (in) Temperature (F) Relative
Humidity
Wind
Chill
(°F)
Heat
Index
(°F)
Pressure
Air Dwpt altimeter
(in)
sea level
(mb)
9:51 am PDT W 5.8 10.00 Fair -- 71.0 62.1 73% NA NA 29.91 1012.5
8:51 am PDT N 0.0 10.00 Fair -- 69.0 62.1 78% NA NA 29.92 1012.8
7:51 am PDT SW 4.6 10.00 Fair -- 67.0 62.1 84% NA NA 29.92 1012.9
6:51 am PDT N 0.0 9.00 Fair -- 64.0 61.0 90% NA NA 29.90 1012.3
5:51 am PDT N 0.0 6.00 Fog/Mist -- 62.0 60.1 93% NA NA 29.88 1011.9
4:51 am PDT N 0.0 8.00 Fair -- 63.0 61.0 93% NA NA 29.88 1011.5
3:51 am PDT N 0.0 9.00 Fair -- 63.0 60.1 90% NA NA 29.87 1011.1
2:51 am PDT N 0.0 10.00 Fair -- 63.0 61.0 93% NA NA 29.86 1010.9
1:51 am PDT N 0.0 10.00 Fair -- 63.0 61.0 93% NA NA 29.86 1011.1
12:51 am PDT N 0.0 10.00 Fair -- 64.0 61.0 90% NA NA 29.87 1011.1
11:51 pm PDT N 0.0 9.00 Fair -- 63.0 61.0 93% NA NA 29.87 1011.3
10:51 pm PDT SW 3.5 10.00 Fair -- 64.0 61.0 90% NA NA 29.87 1011.5
9:51 pm PDT SW 4.6 10.00 Fair -- 64.0 61.0 90% NA NA 29.87 1011.2
8:51 pm PDT SW 6.9 10.00 Fair -- 65.0 61.0 87% NA NA 29.86 1011.0
7:51 pm PDT SW 4.6 10.00 Fair -- 66.0 60.1 81% NA NA 29.85 1010.8
6:51 pm PDT SW 8.1 10.00 Fair -- 67.0 61.0 81% NA NA 29.85 1010.7
5:51 pm PDT SW 9.2 10.00 Fair -- 67.0 61.0 81% NA NA 29.86 1010.9
4:51 pm PDT SW 9.2 10.00 Fair -- 68.0 60.1 76% NA NA 29.86 1011.2
3:51 pm PDT SW 9.2 10.00 Fair -- 69.0 60.1 73% NA NA 29.88 1011.7
2:51 pm PDT SW 8.1 10.00 Fair -- 68.0 61.0 78% NA NA 29.89 1011.9
1:51 pm PDT SW 9.2 10.00 A Few Clouds -- 69.0 61.0 76% NA NA 29.90 1012.2
12:51 pm PDT SW 10.4 10.00 Partly Cloudy -- 69.0 61.0 76% NA NA 29.90 1012.4
11:51 am PDT SW 8.1 10.00 Overcast -- 65.0 60.1 84% NA NA 29.92 1013.1
10:51 am PDT W 5.8 10.00 Partly Cloudy -- 66.0 61.0 84% NA NA 29.91 1012.9

Regional Weather Observation:


Los Angeles / USC Campus Downtown, CA (KCQT)

Fair
81.0 F

Burbank - Bob Hope Airport, CA (KBUR)

Fair
79.0 F

Los Angeles, Whiteman Airport, CA (KWHP)

Clear
81.0 F

El Monte, CA (KEMT)

Fair
75.0 F

Los Angeles, Los Angeles International Airport, CA (KLAX)

A Few Clouds
71.0 F

Hawthorne, Hawthorne Municipal Airport, CA (KHHR)

Fair
74.0 F

Advertise Here


Advertise Here